星链-31183 (STARLINK-31183 )

导读

STARLINK-31183是美国SpaceX公司星链星座的卫星成员,于2024年1月7日发射升空,归入低地球轨道(LEO)组网。星链项目是全球最大规模卫星互联网计划,旨在为全球提供高速低延迟互联网服务,尤其填补偏远地区网络覆盖空白。该卫星作为星链扩张组网的一部分,将助力增强星座服务容量与覆盖能力,推动全球互联覆盖,不过星链大规模部署也引发了太空交通与天文观测相关争议。

Basic Information
目录编号:
58747
目录名称:
STARLINK-31183
国际标识:
2024-005V
轨道中心:
EARTH
卫星名称:
星链-31183
卫星全名:
星链-31183 (STARLINK-31183 )
卫星状态:
在轨 (已飞行971 天)
发射日期:
2024-01-07 UTC
国别 :
美国 (US)
星等 :
--
Orbit Information
数据来源 国际轨道数据
星历时间: 2026-09-03T13:26:46+0800
1天前
查看轨道信息
半长轴: 6861.184km
偏心率: 0.0001397
轨道倾角: 43.001°
近地点辐角 262.414°
升交点赤经 297.300°
平近点角 97.655°
近地点: 482.088km
远地点: 484.006km
周期: 94.267分钟
每日圈数: 15.275807
Detailed Information
固有亮度:
5
最大亮度:
0.3
卫星平台:
Starlink v2.0 mini
覆盖范围:
全球
运营商:
太空探索技术公司
运营商所在国:
美国
制造商(研发单位):
太空探索技术公司
制造商所在国:
美国
使用方式:
暂无
Satellite Introduction
星链(Starlink)计划是由太空探索技术公司(SpaceX)提出的一个巨型低轨卫星互联网星座项目,计划在2019年至2024年间在太空搭建由约1.2万颗卫星组成的“星链”网络,其中1584颗将部署在地球上空550千米处的近地轨道,并从2020年开始工作。该卫星仍在工作。
2D Orbit Map
3D Orbit Map
Orbit Altitude Analysis Chart
Orbit Inclination Analysis Chart
Orbit Comprehensive Analysis Chart
View Comprehensive Chart
Conjunction Data List
Event ID Objects TCA Miss Dist (km) Collision Risk Probability Collision Risk Index (CRI) Action
CDM_260904-114505-874706-652221
2026-09-04T
11:45:02+0000
0.365 km
远距离
2.21262E-4 高风险 0.82
CDM_260904-061505-874706-652221
2026-09-04T
06:15:30+0000
1.205 km
极远距离
6.722899E-6 低风险 0.52
CDM_260904-044105-874706-652221
2026-09-04T
04:41:21+0000
1.306 km
极远距离
5.12153E-6 低风险 0.49
CDM_260904-100602-069105-874721
USA 61 (20691)
2026-09-04T
10:06:05+0000
2.637 km
极远距离
1.062013E-6 低风险 0.36
CDM_260904-131905-874706-652221
2026-09-04T
13:19:12+0000
2.529 km
极远距离
9.258972E-7 极低风险 0.34
CDM_260904-101005-874706-652221
2026-09-04T
10:10:53+0000
2.835 km
极远距离
7.877563E-7 极低风险 0.33
CDM_260905-110705-874706-197821
2026-09-05T
11:07:40+0000
2.829 km
极远距离
6.591465E-7 极低风险 0.31